Location: Brede
(50.9167°N, 0.6000°E)
Time: 01:08:02
(UTC+00:00)

Cosmos 1733 Rocket - Pass Details

Date: 08 August 2020
Orbit: 603 x 628 km, 82.5° (Epoch: 19 September)

Event Time Altitude Azimuth Distance (km) Brightness Sun altitude
Exits shadow 00:11:54 29° 264° (W) 1,129 4.3 -23.0°
Maximum altitude 00:12:51 33° 289° (WNW) 1,057 4.3 -23.0°
Drops below altitude 10° 00:16:52 10° 354° (N) 2,000 6.8 -23.0°
Sets 00:19:18 0° 4° (N) 2,916 8.0 -22.9°
